Location: *
(46.3500°N, 10.9000°E)
Time: 22:08:52
(UTC+00:00)

A-11 Canister half - Pass Details

Date: 29 April 2021
Orbit: 1526 x 1682 km, 47.3° (Epoch: 13 May)

Event Time Altitude Azimuth Distance (km) Brightness Sun altitude
Rises 12:05:33 0° 229° (SW) 4,793 12.0 56.5°
Reaches altitude 10° 12:08:39 10° 226° (SW) 3,830 11.8 56.3°
Maximum altitude 12:18:15 62° 149° (SSE) 1,824 10.7 55.5°
Drops below altitude 10° 12:28:08 10° 72° (ENE) 3,939 11.0 54.7°
Sets 12:31:21 0° 70° (ENE) 4,937 11.4 54.4°
